User: anonymous   Login
Location: Gipe Farm
(40.9466°N, 95.5370°W)
Time: 08:37:08
(UTC-06:00)
Language:

Cosmos 1842 - Orbit

View from above orbital plane
View from above orbital plane
View from above satellite
View from above satellite

Ground track
Ground track

The orbit data is extracted from the following two-line orbital elements,

1 17911U 87038A   16345.16451888  .00000867  00000-0  49982-4 0  9992
2 17911  82.5243  18.3730 0012020 171.5203 188.6233 15.11024901613264
Epoch (UTC): 10 December 2016 03:56:54
Eccentricity: 0.0012020
inclination: 82.5243°
perigee height: 525 km
apogee height: 541 km
right ascension of ascending node: 18.3730°
argument of perigee: 171.5203°
revolutions per day: 15.11024901
mean anomaly at epoch: 188.6233°
orbit number at epoch: 61326

The dashed part of the orbit path shows where the satellite is in the earth's shadow,  

DLR